This demonstration page uses our WeatherBlox Daily Observations layout. Learn more.

Left ArrowRight Arrow

39.08367, -84.50855

Hourly Observations for August 9, 2020

Temp ( °F °C ) Dew Point ( °F °C ) Humidity (%) Winds ( mph kmh ) Pressure ( in mb ) Visibility ( mi km ) Precip ( " mm )
12:53 am 00:53 Clear with Mist and Fog 65 18.3 63 17.2 93 93 N N/A 30.14 1021 6 10 N/A
1:53 am 01:53 Clear with Mist and Fog 64 17.8 62 16.7 93 93 N N/A 30.14 1021 4 6 N/A
2:53 am 02:53 Clear with Mist and Fog 64 17.8 63 17.2 96 96 N N/A 30.14 1021 3 5 N/A
3:01 am 03:01 Clear with Mist and Fog 63 17.2 62 16.7 97 97 N N/A 30.15 1021 2 2 N/A
3:09 am 03:09 Clear with Fog 64 17.8 63 17.2 96 96 N N/A 30.15 1021 1 1 N/A
3:16 am 03:16 Clear with Mist and Fog 63 17.2 62 16.7 97 97 N N/A 30.15 1021 2 3 N/A
3:24 am 03:24 Clear with Mist and Fog 63 17.2 62 16.7 97 97 N N/A 30.15 1021 1 2 N/A
3:36 am 03:36 Clear with Mist and Fog 63 17.2 62 16.7 97 97 NE 3 6 30.15 1021 3 5 N/A
3:42 am 03:42 Clear with Mist and Fog 62 16.7 61 16.1 96 96 NE 3 6 30.15 1021 2 3 N/A
3:53 am 03:53 Clear with Mist and Fog 62 16.7 61 16.1 96 96 ENE 5 7 30.15 1021 3 5 N/A
4:53 am 04:53 Clear with Mist and Fog 63 17.2 62 16.7 97 97 N N/A 30.16 1021 5 8 N/A
5:13 am 05:13 Clear with Mist and Fog 63 17.2 61 16.1 93 93 N N/A 30.16 1021 3 4 N/A
5:24 am 05:24 Clear with Mist and Fog 64 17.8 62 16.7 93 93 N N/A 30.16 1021 3 5 N/A
5:53 am 05:53 Clear with Mist and Fog 62 16.7 61 16.1 96 96 N N/A 30.16 1021 3 5 N/A
6:03 am 06:03 Mostly Clear with Mist and Fog 63 17.2 61 16.1 93 93 N N/A 30.16 1021 4 6 N/A
6:17 am 06:17 Mostly Cloudy with Mist and Fog 63 17.2 62 16.7 97 97 N N/A 30.15 1021 2 3 N/A
6:29 am 06:29 Cloudy with Mist and Fog 62 16.7 61 16.1 96 96 N N/A 30.15 1021 1 1 N/A
6:39 am 06:39 Cloudy with Fog 63 17.2 63 17.2 100 100 N N/A 30.15 1021 0 0 N/A
6:46 am 06:46 Mostly Cloudy with Fog 64 17.8 63 17.2 96 96 N N/A 30.15 1021 0 0 N/A
6:53 am 06:53 Mostly Cloudy with Fog 64 17.8 63 17.2 96 96 N N/A 30.15 1021 N/A N/A
7:53 am 07:53 Mostly Cloudy with Fog 64 17.8 64 17.8 100 100 N N/A 30.16 1021 N/A N/A
8:53 am 08:53 Cloudy with Mist and Fog 67 19.4 66 18.9 97 97 N N/A 30.16 1022 2 3 N/A
9:09 am 09:09 Partly Cloudy with Mist and Fog 68 20 67 19.4 96 96 N N/A 30.17 1022 4 6 N/A
9:53 am 09:53 Sunny 75 23.9 68 20 79 79 N N/A 30.16 1022 8 13 N/A
10:53 am 10:53 Sunny 80 26.7 68 20 67 67 SSW 6 9 30.15 1021 10 16 N/A
11:53 am 11:53 Sunny 82 27.8 67 19.4 60 60 N N/A 30.15 1021 10 16 N/A
12:53 pm 12:53 Sunny 85 29.4 68 20 57 57 S 6 9 30.13 1020 10 16 N/A
1:53 pm 13:53 Sunny 83 28.3 65 18.3 55 55 S 6 9 30.12 1020 10 16 N/A
2:53 pm 14:53 Sunny 87 30.6 66 18.9 50 50 N N/A 30.11 1020 10 16 N/A
3:53 pm 15:53 Sunny 88 31.1 67 19.4 50 50 N N/A 30.09 1019 10 16 N/A
4:53 pm 16:53 Mostly Cloudy 88 31.1 68 20 52 52 SE 6 9 30.07 1018 10 16 N/A
5:53 pm 17:53 Sunny 88 31.1 63 17.2 43 43 S 6 9 30.05 1018 10 16 N/A
6:53 pm 18:53 Sunny 86 30 68 20 55 55 S 7 11 30.04 1017 10 16 N/A
7:53 pm 19:53 Sunny 83 28.3 69 20.6 63 63 S 3 6 30.04 1017 10 16 N/A
8:53 pm 20:53 Clear 76 24.4 70 21.1 82 82 N N/A 30.04 1017 10 16 N/A
9:53 pm 21:53 Clear 74 23.3 69 20.6 85 85 N N/A 30.06 1018 10 16 N/A
10:53 pm 22:53 Clear 72 22.2 69 20.6 91 91 N N/A 30.07 1018 10 16 N/A
11:53 pm 23:53 Clear 71 21.7 68 20 90 90 N N/A 30.07 1018 10 16 N/A

Powered by AerisWeather